OpenBCM V1.13 (Linux)

Packet Radio Mailbox

DB0FHN

[JN59NK Nuernberg]

 Login: GUEST





  
CX2SA  > KEPS     17.09.04 05:33l 95 Lines 2475 Bytes #999 (0) @ AMSAT
BID : ORB04260.M
Read: GUEST
Subj: Orbital Elements  04260.MISC
Path: DB0FHN<DB0FOR<DB0MRW<OK0PPL<DB0RES<ON0AR<EB2BJX<ED1ZAC<CX2SA
Sent: 040917/0326Z @:CX2SA.LAV.URY.SA #:14920 [Minas] FBB7.00e $:ORB04260.M
From: CX2SA@CX2SA.LAV.URY.SA
To  : KEPS@AMSAT


HR AMSAT ORBITAL ELEMENTS FOR MANNED AND MISCELLANEOUS SATELLITES
FROM WA5QGD FORT WORTH,TX September 16, 2004
SEND SUBSCRIBE/UNSUBSCRIBE TO majordomo@amsat.org ONLY
BID: ORB04260.M
TO ALL RADIO AMATEURS BT

Satellite: HUBBLE
Catalog number: 20580
Epoch time:      04259.44862953
Element set:     154
Inclination:       28.4700 deg
RA of node:       258.4054 deg
Eccentricity:    0.0005256
Arg of perigee:   232.8660 deg
Mean anomaly:     127.1525 deg
Mean motion:   14.99301364 rev/day
Decay rate:       9.42e-06 rev/day^2
Epoch rev:           58896
Checksum:              303

Satellite: UARS
Catalog number: 21701
Epoch time:      04260.56913646
Element set:     267
Inclination:       56.9780 deg
RA of node:       219.0515 deg
Eccentricity:    0.0005434
Arg of perigee:   114.1144 deg
Mean anomaly:     246.0469 deg
Mean motion:   15.03615572 rev/day
Decay rate:      -1.34e-06 rev/day^2
Epoch rev:           71233
Checksum:              268

Satellite: PO-34
Catalog number: 25520
Epoch time:      04260.32669724
Element set:      12
Inclination:       28.4599 deg
RA of node:       342.5367 deg
Eccentricity:    0.0005587
Arg of perigee:   127.7001 deg
Mean anomaly:     232.4122 deg
Mean motion:   15.15733439 rev/day
Decay rate:      1.365e-05 rev/day^2
Epoch rev:           32498
Checksum:              292

Satellite: ISS
Catalog number: 25544
Epoch time:      04260.95096722
Element set:     705
Inclination:       51.6345 deg
RA of node:       217.3566 deg
Eccentricity:    0.0005382
Arg of perigee:   156.3543 deg
Mean anomaly:     317.3004 deg
Mean motion:   15.69757874 rev/day
Decay rate:     2.3470e-04 rev/day^2
Epoch rev:           33273
Checksum:              301

Satellite: OO-38
Catalog number: 26063
Epoch time:      04260.03438269
Element set:     161
Inclination:      100.2233 deg
RA of node:        63.6089 deg
Eccentricity:    0.0037414
Arg of perigee:   106.7845 deg
Mean anomaly:     253.7453 deg
Mean motion:   14.35667518 rev/day
Decay rate:        4.3e-07 rev/day^2
Epoch rev:           24295
Checksum:              291

Satellite: NO-45
Catalog number: 26932
Epoch time:      04260.99656867
Element set:     851
Inclination:       67.0568 deg
RA of node:       211.0140 deg
Eccentricity:    0.0005125
Arg of perigee:   283.4922 deg
Mean anomaly:      76.5733 deg
Mean motion:   14.29441259 rev/day
Decay rate:       -4.2e-07 rev/day^2
Epoch rev:           15475
Checksum:              309



Read previous mail | Read next mail


 12.06.2026 07:56:06lGo back Go up